Temp
70 72 70 72 63 57 51 58 72 70 71 78 80 76 75 74 73 63 70 76 77 76 76 78 80 80 80 80 79 79 79 79 79 79 79 79 79 79 79 79 80 80 81 80 81 81 81 81 81
71 75 71 64 56 49 53 62 66 74 77 79 78 77 76 73 75 69 71 76 77 78 76 76 80 80 80 80 79 79 79 79 79 79 79 79 79 79 79 79 80 80 80 80 80 81 81 81 81
72 74 67 58 49 51 54 62 67 76 80 77 75 79 77 73 74 73 74 76 78 78 75 76 79 79 80 80 79 79 79 79 79 79 79 79 79 79 79 79 80 80 81 81 80 80 80 80 80
72 70 65 58 52 61 64 66 74 75 77 78 76 72 79 81 79 76 76 76 78 77 74 78 79 79 79 80 79 79 79 79 79 79 79 79 79 78 78 79 79 80 81 81 80 80 79 79 79
68 62 55 50 54 63 66 72 74 74 75 77 76 73 72 76 78 76 75 76 76 76 74 77 79 79 79 80 79 79 79 78 79 79 79 79 79 78 78 79 79 79 80 80 80 79 79 79 79
65 60 53 49 55 65 69 69 74 74 75 75 74 73 67 76 75 75 76 74 76 76 77 75 79 79 79 79 79 79 78 78 78 78 78 78 78 78 78 79 79 79 79 79 79 79 78 78 78
63 56 51 50 58 65 70 73 71 73 74 74 78 68 68 75 76 77 75 73 75 77 78 74 75 77 79 79 78 78 78 78 78 78 77 78 78 78 78 78 78 79 78 78 79 78 78 78 78
64 59 51 52 58 63 73 71 70 74 74 82 80 68 65 74 78 75 73 72 76 77 78 78 77 74 74 74 79 78 78 78 78 78 78 78 78 78 78 77 77 78 78 78 78 78 78 78 77
64 57 53 56 60 66 72 69 75 79 76 77 77 77 77 79 76 72 70 69 72 75 76 77 75 72 72 72 76 78 79 79 78 77 78 75 71 71 74 76 77 78 78 78 78 78 77 77 77
62 54 57 65 64 63 69 71 71 75 74 74 77 79 80 78 74 71 69 67 67 69 72 74 72 72 71 77 73 72 73 72 72 72 71 70 69 68 74 75 78 78 78 78 78 78 78 78 71
59 60 65 71 71 69 69 71 72 71 67 71 71 75 77 76 74 73 72 71 71 69 71 71 71 71 71 73 70 71 70 70 70 71 70 69 70 68 68 68 70 70 74 72 73 72 71 70 70
58 67 68 70 71 72 69 75 72 72 65 75 73 75 74 72 71 72 74 73 71 70 71 72 71 70 69 69 70 70 70 70 70 69 69 68 67 67 68 68 69 68 68 68 68 68 70 70 71
59 66 69 70 69 68 74 69 71 66 70 72 71 71 70 69 68 69 70 71 73 72 74 74 73 70 70 70 70 69 70 71 71 69 69 68 66 66 68 69 69 69 69 68 68 68 70 70 72
66 67 66 68 66 67 68 68 71 67 70 68 67 65 65 66 66 66 66 66 67 69 70 73 75 73 72 70 70 70 70 70 70 70 72 70 70 67 68 69 69 68 69 71 70 70 70 71 71
66 60 65 66 66 65 70 67 60 68 68 65 64 64 64 65 66 64 65 64 67 67 68 69 74 77 75 73 71 71 72 74 71 72 72 74 72 70 71 69 69 71 70 71 70 70 71 70 74
62 58 55 63 66 67 71 53 62 67 66 63 63 63 62 62 62 64 65 64 65 66 65 66 71 70 71 71 72 73 71 72 72 69 70 73 73 71 69 69 68 73 70 69 69 69 70 70 67
56 51 52 63 67 68 67 52 63 68 65 60 60 60 61 60 61 62 64 63 63 63 64 65 66 65 65 67 69 70 70 70 72 71 71 72 73 74 70 69 69 71 68 69 69 70 68 68 69
52 52 53 54 64 66 59 55 61 65 62 59 58 57 57 58 58 61 62 63 63 63 62 63 64 64 65 65 66 67 69 70 71 70 70 72 73 77 74 70 69 68 68 67 68 67 70 69 68
59 57 56 61 67 63 57 55 57 59 58 55 55 55 56 56 59 60 61 62 61 62 61 60 61 61 63 65 65 67 68 67 67 68 69 69 70 71 70 68 68 68 67 66 68 68 69 66 66
61 57 55 61 66 64 54 52 55 57 55 55 54 53 54 54 56 57 58 59 58 58 59 59 59 60 61 63 65 67 68 65 65 66 66 68 70 68 69 67 66 66 67 67 65 65 65 65 65
56 56 54 55 61 61 56 51 53 55 56 56 55 54 53 52 52 53 55 55 55 55 56 58 57 58 60 60 62 63 65 65 64 64 65 66 68 69 68 67 66 65 66 65 63 63 64 63 65
52 61 62 59 55 50 57 44 47 51 51 52 51 50 51 52 53 52 52 51 52 54 56 56 57 57 60 59 59 59 59 58 59 61 63 64 66 66 68 68 68 65 65 65 64 64 63 63 62
59 63 58 57 50 47 48 44 41 50 48 49 51 52 52 52 52 52 52 53 52 55 54 55 56 56 57 57 57 57 57 58 60 61 61 62 63 64 66 66 67 65 63 62 62 61 63 64 64
65 58 53 47 45 39 45 45 44 45 49 50 53 54 55 54 54 54 54 54 54 55 55 54 54 53 54 54 54 55 55 56 56 56 57 58 60 61 63 64 63 64 63 63 63 63 63 63 62
58 49 39 40 38 39 46 44 47 50 54 55 54 54 54 55 53 53 53 53 53 53 54 55 52 51 52 52 52 52 52 53 52 52 53 54 55 56 58 60 61 62 63 64 64 63 63 63 61
51 49 41 35 34 40 48 41 47 55 57 57 57 56 55 54 53 53 53 53 53 53 53 53 52 51 51 51 50 51 52 51 51 51 51 51 52 53 56 57 58 61 63 63 65 63 63 63 62
51 47 49 42 38 37 41 45 53 55 55 56 55 55 54 53 52 53 53 52 52 52 52 53 52 51 51 51 51 51 51 51 51 52 51 51 52 56 55 56 57 59 62 63 61 62 62 63 63
55 57 45 39 34 32 38 40 42 48 52 54 54 54 54 54 53 52 52 52 52 51 51 51 52 52 51 51 51 52 52 53 52 52 52 52 52 53 54 55 56 57 60 61 59 60 61 60 60
52 47 44 43 39 34 31 38 51 53 54 53 55 57 56 54 54 53 52 52 52 51 51 51 52 52 52 52 52 52 52 52 52 52 52 52 52 53 54 55 55 56 56 57 59 60 61 59 57
55 48 45 37 38 37 35 38 54 54 56 56 57 59 58 56 54 53 53 53 52 51 51 52 52 52 53 52 52 52 52 52 51 52 52 52 52 53 54 55 55 56 56 55 56 58 60 57 57
MSLP
1009.80 1010.02 1010.40 1010.84 1012.13 1012.42 1012.09 1011.01 1009.70 1008.62 1008.02 1007.32 1007.17 1007.64 1007.91 1008.47 1008.92 1010.19 1009.73 1010.12 1010.64 1011.18 1011.81 1012.50 1012.81 1012.74 1012.77 1013.06 1013.41 1013.85 1014.10 1014.32 1014.39 1014.39 1014.39 1014.50 1014.70 1014.79 1014.85 1014.94 1015.03 1015.17 1015.22 1015.28 1015.35 1015.47 1015.55 1015.58 1015.64
1009.73 1010.00 1010.50 1011.27 1012.10 1012.62 1011.60 1010.14 1009.36 1007.92 1006.79 1007.08 1007.28 1007.37 1007.66 1008.48 1008.91 1009.91 1010.60 1010.98 1010.93 1011.39 1011.86 1012.45 1012.88 1013.03 1012.86 1013.07 1013.48 1013.92 1014.16 1014.35 1014.60 1014.73 1014.80 1014.84 1014.96 1015.08 1015.17 1015.27 1015.34 1015.45 1015.59 1015.61 1015.67 1015.77 1015.87 1015.91 1015.91
1009.65 1009.82 1010.99 1011.82 1012.30 1012.09 1010.86 1009.75 1008.69 1007.56 1007.26 1007.53 1007.62 1007.48 1007.55 1008.49 1009.21 1009.66 1010.25 1010.99 1011.37 1012.10 1012.48 1012.70 1012.84 1013.02 1013.10 1013.31 1013.48 1013.79 1014.16 1014.35 1014.58 1014.77 1014.90 1015.07 1015.19 1015.27 1015.35 1015.50 1015.64 1015.65 1015.68 1015.78 1015.94 1016.04 1016.09 1016.12 1016.13
1009.77 1010.61 1011.75 1011.90 1011.93 1010.41 1009.38 1009.01 1007.80 1007.56 1007.45 1007.57 1007.70 1007.83 1007.81 1008.36 1009.03 1009.61 1010.45 1011.11 1011.90 1012.40 1012.67 1012.75 1013.07 1013.21 1013.28 1013.50 1013.85 1014.00 1014.03 1014.27 1014.47 1014.81 1015.07 1015.19 1015.28 1015.43 1015.55 1015.67 1015.84 1015.92 1015.90 1015.88 1015.96 1016.13 1016.21 1016.22 1016.25
1010.28 1011.25 1012.05 1012.01 1011.19 1009.33 1008.38 1007.75 1007.17 1007.18 1007.29 1007.28 1007.75 1007.97 1008.89 1009.56 1009.49 1010.35 1010.73 1011.54 1011.88 1012.64 1012.92 1013.04 1013.08 1013.29 1013.60 1013.80 1014.10 1014.29 1014.45 1014.53 1014.61 1014.73 1015.08 1015.24 1015.40 1015.54 1015.67 1015.81 1015.96 1016.09 1016.14 1016.15 1016.14 1016.15 1016.23 1016.28 1016.24
1010.93 1011.79 1012.47 1012.19 1010.88 1008.96 1007.55 1006.99 1006.46 1006.98 1007.24 1007.33 1007.80 1008.26 1010.08 1010.44 1010.39 1010.81 1011.39 1011.83 1012.36 1012.62 1012.93 1013.39 1013.60 1013.79 1014.07 1014.23 1014.41 1014.73 1014.88 1014.96 1015.08 1015.16 1015.29 1015.48 1015.63 1015.79 1015.94 1016.00 1016.05 1016.19 1016.28 1016.30 1016.30 1016.29 1016.26 1016.21 1016.19
1010.80 1011.86 1012.02 1011.45 1010.18 1008.48 1007.34 1006.41 1006.83 1006.72 1007.12 1007.32 1007.56 1008.78 1010.23 1010.61 1011.00 1011.37 1011.75 1012.37 1012.71 1013.02 1013.18 1013.66 1013.99 1014.16 1014.40 1014.53 1014.72 1014.87 1015.31 1015.51 1015.58 1015.71 1015.76 1015.92 1016.01 1016.02 1016.09 1016.16 1016.16 1016.21 1016.27 1016.32 1016.34 1016.32 1016.27 1016.15 1016.11
1010.38 1011.39 1011.51 1010.74 1009.82 1008.46 1007.33 1007.13 1007.13 1006.90 1007.36 1007.22 1007.55 1008.70 1009.89 1010.39 1011.18 1012.02 1012.76 1013.34 1013.66 1013.83 1013.75 1013.93 1014.11 1014.26 1014.38 1014.48 1014.63 1014.78 1014.92 1015.28 1015.46 1015.81 1015.91 1015.99 1016.11 1016.18 1016.15 1016.19 1016.19 1016.15 1016.18 1016.24 1016.22 1016.20 1016.22 1016.21 1016.10
1009.92 1010.83 1010.91 1009.88 1009.11 1008.61 1007.46 1007.36 1007.42 1007.41 1007.51 1007.73 1007.98 1008.03 1008.79 1010.33 1011.53 1012.55 1013.40 1014.02 1014.18 1014.30 1014.13 1013.98 1014.12 1014.38 1014.35 1014.42 1014.44 1014.47 1014.59 1014.97 1015.28 1015.65 1016.00 1016.15 1016.32 1016.41 1016.43 1016.38 1016.33 1016.22 1016.15 1016.14 1016.11 1016.08 1016.06 1016.06 1016.04
1009.93 1010.61 1009.93 1009.12 1008.23 1008.15 1007.62 1007.50 1007.72 1007.99 1008.27 1008.33 1008.52 1009.30 1010.25 1011.38 1012.03 1012.36 1013.15 1013.68 1014.03 1014.07 1014.03 1013.83 1014.19 1014.48 1014.73 1014.76 1014.86 1015.01 1015.19 1014.98 1015.11 1015.42 1015.74 1015.96 1016.07 1016.27 1016.43 1016.57 1016.49 1016.36 1016.25 1016.21 1016.16 1016.10 1016.04 1016.04 1016.04
1009.58 1009.73 1008.96 1008.00 1007.88 1007.51 1007.38 1007.65 1008.04 1008.44 1009.04 1009.63 1010.05 1010.44 1011.07 1011.97 1012.78 1013.12 1013.27 1013.12 1012.96 1013.52 1013.79 1013.72 1013.51 1013.68 1014.01 1014.17 1014.45 1014.97 1015.26 1015.37 1015.24 1015.29 1015.44 1015.70 1015.80 1015.96 1016.13 1016.24 1016.23 1016.24 1016.21 1016.20 1016.14 1016.02 1015.92 1015.89 1015.95
1009.25 1008.73 1008.10 1007.34 1007.16 1007.38 1007.40 1007.71 1008.44 1009.87 1011.17 1010.54 1010.91 1011.11 1011.44 1012.30 1013.13 1013.33 1013.57 1013.65 1013.75 1014.13 1014.50 1014.53 1014.97 1015.38 1014.77 1014.45 1014.66 1014.44 1014.78 1015.18 1015.36 1015.38 1015.50 1015.78 1015.96 1016.05 1016.01 1016.02 1015.93 1015.92 1016.01 1016.11 1016.07 1016.08 1015.83 1015.71 1015.69
1009.05 1008.38 1007.93 1007.24 1007.04 1006.84 1007.67 1008.22 1009.46 1011.50 1011.65 1011.61 1012.02 1012.39 1013.15 1013.23 1013.79 1014.03 1014.13 1013.85 1013.73 1013.68 1013.57 1013.65 1014.11 1014.43 1014.95 1014.65 1014.50 1014.94 1014.70 1014.61 1014.87 1015.33 1015.58 1015.78 1015.95 1016.00 1015.86 1015.81 1015.85 1015.77 1015.86 1015.99 1016.01 1015.94 1015.73 1015.56 1015.27
1008.69 1008.37 1008.08 1007.82 1007.26 1007.14 1007.65 1008.88 1009.64 1012.71 1012.44 1012.87 1013.07 1014.10 1014.45 1014.40 1014.69 1014.93 1014.78 1014.82 1014.51 1014.43 1014.13 1013.84 1013.73 1014.08 1014.00 1015.01 1014.92 1015.06 1015.36 1015.32 1015.27 1015.12 1014.89 1015.03 1015.47 1015.80 1015.91 1015.72 1015.68 1015.78 1015.61 1015.56 1015.68 1015.67 1015.69 1015.48 1015.31
1008.74 1008.75 1008.44 1007.86 1007.62 1007.69 1008.06 1009.99 1011.80 1012.80 1012.66 1014.22 1014.66 1015.18 1015.46 1015.41 1015.15 1015.43 1015.68 1015.46 1015.18 1014.79 1014.52 1014.33 1013.53 1013.54 1013.61 1014.05 1014.46 1014.58 1014.58 1014.56 1014.38 1014.69 1014.90 1014.83 1015.08 1015.28 1015.37 1015.50 1015.55 1015.24 1015.19 1015.23 1015.39 1015.45 1015.37 1015.33 1014.99
1009.55 1009.46 1009.57 1008.51 1008.15 1008.32 1008.75 1011.83 1013.38 1013.48 1012.76 1014.83 1015.66 1016.30 1016.75 1016.71 1016.53 1016.20 1015.93 1015.94 1015.89 1015.64 1015.20 1014.61 1014.11 1013.66 1013.64 1013.79 1013.95 1013.98 1014.34 1014.40 1014.66 1015.14 1015.17 1015.03 1015.09 1015.23 1015.30 1015.54 1015.46 1015.02 1015.15 1015.17 1015.31 1015.42 1015.42 1015.21 1015.10
1010.82 1010.52 1010.10 1009.22 1008.68 1008.91 1009.92 1013.34 1014.41 1014.67 1014.44 1015.85 1016.68 1017.08 1017.02 1017.06 1017.09 1017.10 1016.78 1016.38 1016.04 1015.54 1015.29 1015.12 1014.88 1014.51 1014.42 1014.37 1014.16 1014.15 1014.48 1014.68 1014.71 1014.57 1014.64 1014.46 1014.31 1014.65 1015.28 1015.23 1014.80 1014.83 1015.18 1015.34 1015.45 1015.28 1015.10 1015.01 1014.83
1011.18 1010.93 1010.50 1010.30 1009.89 1010.33 1011.76 1014.41 1015.39 1015.84 1016.04 1017.06 1017.79 1018.21 1018.16 1017.96 1017.99 1017.59 1016.72 1016.07 1015.40 1016.08 1016.31 1016.05 1015.73 1015.33 1014.74 1014.49 1014.34 1014.48 1014.71 1014.71 1014.85 1014.88 1014.83 1014.48 1014.42 1013.73 1014.34 1014.68 1014.62 1015.02 1015.14 1015.20 1015.30 1015.36 1014.97 1014.93 1015.36
1010.94 1010.93 1010.87 1010.53 1010.33 1011.21 1013.22 1015.44 1016.71 1017.35 1017.56 1018.07 1018.74 1019.07 1019.15 1018.95 1018.79 1018.24 1017.79 1017.63 1017.67 1017.46 1017.15 1016.58 1016.25 1016.03 1015.21 1015.01 1014.92 1014.80 1015.07 1015.21 1015.39 1015.22 1014.93 1014.81 1014.58 1013.95 1013.57 1013.98 1014.47 1014.73 1015.22 1015.60 1015.61 1015.11 1015.11 1015.85 1015.79
1010.82 1011.02 1011.39 1011.15 1011.23 1012.14 1014.75 1016.68 1017.81 1018.46 1018.91 1019.17 1019.56 1019.98 1020.05 1020.08 1019.80 1019.50 1019.17 1018.92 1018.89 1018.40 1017.63 1016.96 1016.85 1016.45 1016.30 1016.29 1016.03 1015.64 1015.29 1015.58 1015.56 1015.34 1015.07 1014.86 1014.58 1014.51 1013.97 1014.45 1014.57 1014.92 1015.10 1015.41 1015.75 1015.82 1015.91 1015.77 1016.34
1011.32 1011.43 1011.72 1012.00 1012.25 1012.98 1014.49 1017.15 1018.40 1019.56 1019.91 1020.41 1020.69 1020.88 1021.12 1021.34 1021.23 1020.94 1020.54 1020.30 1019.99 1019.10 1018.36 1018.13 1017.79 1017.57 1017.14 1016.64 1016.35 1016.08 1015.76 1015.75 1016.03 1015.94 1015.80 1015.46 1015.03 1014.45 1014.05 1013.80 1014.22 1014.07 1014.32 1014.99 1015.33 1015.10 1015.47 1015.78 1015.24
1011.44 1011.65 1012.04 1012.66 1013.40 1014.24 1014.92 1017.48 1018.78 1019.75 1020.72 1021.28 1021.47 1021.61 1021.72 1021.64 1021.67 1021.48 1021.25 1020.96 1020.62 1019.71 1019.16 1018.78 1018.32 1018.11 1017.87 1017.50 1017.26 1017.18 1017.33 1017.34 1017.21 1016.89 1016.39 1016.05 1015.42 1014.96 1014.54 1013.88 1014.09 1014.24 1014.38 1014.62 1015.07 1014.88 1014.47 1015.07 1015.06
1011.45 1011.93 1012.81 1013.45 1014.58 1015.40 1016.21 1017.56 1018.83 1019.64 1020.47 1020.85 1021.16 1021.46 1021.90 1021.84 1021.77 1021.79 1021.60 1021.20 1020.52 1019.70 1019.57 1019.33 1019.17 1019.11 1018.89 1018.68 1018.67 1018.53 1018.32 1018.16 1017.96 1017.73 1017.21 1016.89 1016.31 1015.87 1015.50 1014.70 1014.50 1014.25 1014.27 1014.42 1014.38 1014.27 1014.35 1014.55 1014.78
1011.51 1012.52 1013.80 1015.02 1015.85 1016.89 1016.69 1017.46 1018.19 1018.93 1018.91 1020.04 1020.64 1021.05 1021.50 1021.83 1021.84 1021.53 1021.06 1020.57 1020.27 1020.21 1020.15 1020.02 1019.91 1019.90 1019.59 1019.47 1019.50 1019.31 1019.21 1019.07 1018.80 1018.47 1017.97 1017.72 1017.24 1016.74 1016.04 1015.78 1015.37 1014.63 1014.38 1014.39 1014.15 1014.38 1014.47 1014.33 1014.30
1012.31 1013.97 1015.63 1016.75 1017.38 1017.46 1016.92 1017.37 1017.05 1017.35 1017.78 1018.47 1019.17 1019.74 1020.21 1020.47 1020.58 1020.51 1020.49 1020.62 1020.72 1020.56 1020.30 1020.30 1020.28 1020.38 1020.23 1020.19 1020.17 1019.99 1019.71 1019.43 1019.37 1019.23 1018.91 1018.39 1017.96 1017.55 1016.96 1016.32 1015.70 1015.16 1014.83 1014.65 1014.33 1014.16 1014.49 1014.48 1014.65
1013.42 1014.75 1016.42 1017.69 1018.75 1018.07 1017.32 1017.37 1016.93 1017.00 1017.36 1017.81 1018.47 1019.11 1019.66 1019.99 1020.16 1020.35 1020.48 1020.57 1020.69 1020.73 1020.65 1020.46 1020.49 1020.72 1020.77 1020.67 1020.53 1020.39 1020.24 1020.02 1019.78 1019.55 1019.30 1018.93 1018.47 1017.94 1017.36 1016.83 1016.24 1015.68 1015.14 1014.86 1014.54 1014.38 1014.53 1014.57 1014.54
1014.06 1015.25 1016.37 1017.73 1019.04 1019.21 1017.98 1017.68 1017.25 1017.33 1017.73 1018.20 1018.66 1019.09 1019.31 1019.54 1019.92 1020.21 1020.28 1020.47 1020.77 1020.74 1020.77 1020.82 1020.97 1020.99 1020.83 1020.94 1020.73 1020.60 1020.46 1020.35 1020.26 1019.94 1019.58 1019.22 1018.76 1018.23 1017.70 1017.15 1016.72 1016.21 1015.71 1015.39 1015.12 1014.94 1014.72 1014.55 1014.43
1013.91 1015.30 1016.84 1018.44 1019.69 1019.90 1018.65 1018.05 1017.43 1017.47 1017.59 1018.03 1018.43 1018.54 1018.63 1019.07 1019.50 1019.83 1019.86 1020.20 1020.52 1020.71 1021.02 1021.17 1021.19 1021.17 1021.04 1020.98 1020.77 1020.65 1020.56 1020.43 1020.29 1020.09 1019.90 1019.56 1019.07 1018.56 1018.13 1017.76 1017.37 1016.85 1016.34 1015.91 1015.65 1015.43 1015.28 1014.93 1014.67
1014.98 1015.85 1017.32 1018.56 1019.59 1019.99 1019.45 1017.99 1016.26 1016.26 1016.63 1017.13 1017.44 1017.47 1017.79 1018.21 1018.56 1019.26 1019.64 1020.24 1020.42 1020.81 1021.09 1021.20 1021.20 1021.16 1020.97 1020.82 1020.82 1020.72 1020.61 1020.46 1020.29 1020.12 1019.90 1019.63 1019.29 1018.88 1018.48 1018.07 1017.69 1017.39 1016.94 1016.48 1016.11 1015.57 1015.27 1015.01 1014.89
1015.28 1016.14 1017.36 1019.03 1019.86 1019.97 1019.51 1017.53 1015.87 1015.71 1015.93 1016.39 1016.68 1016.93 1017.12 1017.67 1018.49 1019.20 1019.61 1019.97 1020.41 1020.74 1020.87 1020.99 1020.87 1020.90 1020.86 1020.80 1020.76 1020.66 1020.60 1020.45 1020.30 1020.13 1019.97 1019.76 1019.48 1019.09 1018.73 1018.32 1017.94 1017.54 1017.18 1016.84 1016.58 1016.24 1015.94 1015.63 1015.31
Wind_Speed
3 3 3 4 4 5 2 7 4 5 4 3 6 4 4 2 3 5 3 8 15 16 13 13 15 17 19 18 16 14 12 11 11 12 13 12 12 12 12 11 10 10 10 10 10 10 10 11 12
2 4 4 3 6 2 6 3 9 14 7 5 1 3 2 1 3 8 9 6 16 16 12 11 15 15 18 19 17 15 13 13 11 11 11 11 10 10 10 9 9 9 7 7 8 8 8 8 8
1 3 4 5 4 4 4 6 7 7 11 2 2 2 2 1 4 10 8 14 14 14 8 10 16 15 16 18 18 17 15 14 12 11 11 9 9 8 8 7 7 8 7 6 5 5 5 4 4
2 5 5 5 5 9 8 7 6 3 2 3 2 1 4 3 7 7 17 16 16 14 7 14 15 14 16 17 16 15 16 15 14 11 10 9 8 7 6 6 5 5 6 5 4 4 3 3 3
5 3 4 1 6 7 4 7 9 7 7 4 3 3 5 6 14 16 18 14 16 14 5 10 15 15 15 16 15 14 13 12 12 13 11 10 9 8 7 6 6 6 5 5 5 6 6 6 6
4 4 5 2 6 8 7 2 8 6 4 2 3 4 3 5 10 15 12 12 10 12 10 6 12 11 11 12 12 10 9 10 9 9 9 9 8 8 7 7 7 7 7 7 8 7 8 8 8
6 5 3 3 6 6 6 8 4 9 7 1 4 5 2 3 9 10 12 9 8 8 11 5 5 8 10 10 10 9 6 5 5 5 5 6 7 7 7 7 8 8 8 8 9 9 9 10 10
6 5 2 3 4 6 7 4 3 7 4 1 1 7 6 7 11 11 10 9 9 8 9 10 9 5 6 6 12 11 10 9 7 7 7 6 7 8 8 8 8 9 10 10 10 10 11 10 10
4 6 3 4 3 5 6 5 4 3 5 2 3 5 8 18 16 14 11 6 7 7 9 10 9 5 5 5 8 12 14 12 9 7 6 4 2 4 6 7 10 11 11 12 12 12 11 11 11
6 4 4 4 3 3 1 5 2 3 1 4 7 16 18 13 13 16 13 11 8 9 11 11 8 6 4 4 3 3 3 3 5 5 4 3 3 3 5 8 12 12 12 12 12 12 13 11 4
2 4 5 5 5 4 3 3 2 6 3 7 9 17 15 11 7 7 6 9 13 5 6 8 11 10 10 7 4 3 2 2 3 5 5 4 3 3 3 3 3 3 8 4 5 6 4 5 4
1 4 5 3 2 4 3 5 2 13 2 13 12 13 17 14 8 5 5 5 4 4 1 2 3 7 3 0 3 5 5 3 3 4 5 4 3 4 4 3 4 4 3 5 4 3 5 6 5
2 3 5 1 4 3 8 2 7 9 13 16 17 18 13 10 9 8 7 8 6 8 7 8 8 7 5 5 3 3 5 5 5 4 4 3 4 4 4 4 4 4 3 4 5 5 5 5 6
3 3 1 4 2 2 3 3 7 5 15 17 18 14 12 13 9 8 10 9 8 5 4 1 8 6 7 5 4 2 3 4 3 4 6 7 6 4 4 4 4 5 4 4 4 5 5 5 4
1 1 5 3 2 2 4 8 4 9 20 16 15 12 12 12 12 11 8 9 6 4 5 6 5 11 10 8 5 5 5 5 6 6 6 7 6 6 6 5 4 6 4 6 4 5 4 4 6
5 6 5 5 2 2 8 1 3 4 21 13 13 11 10 11 10 10 9 6 7 6 6 7 7 5 1 4 5 4 5 4 3 2 3 6 6 6 5 5 4 6 4 3 3 3 4 5 4
7 1 2 9 2 2 6 5 6 4 16 14 11 10 10 10 11 10 9 8 9 11 11 9 8 8 6 4 4 2 4 3 3 3 4 6 6 7 7 5 4 3 3 3 3 3 4 3 4
3 3 3 3 6 7 15 8 6 6 14 14 11 9 9 11 11 11 14 15 17 14 10 8 7 9 6 3 3 2 1 3 5 5 7 9 5 5 6 4 2 3 2 2 1 3 3 1 4
3 2 3 5 7 8 8 10 7 6 10 11 10 8 8 10 9 11 13 12 10 9 10 11 12 11 9 5 4 3 4 4 5 6 7 7 5 6 2 4 3 3 3 3 4 2 2 6 5
5 4 4 4 6 9 9 9 8 7 4 6 8 6 6 5 9 9 10 10 9 8 9 12 12 12 9 6 2 2 2 3 3 4 7 8 5 4 5 5 4 6 6 8 4 6 1 3 6
4 6 2 2 4 6 7 4 5 5 7 7 7 4 3 5 5 4 4 5 7 7 9 9 9 10 10 11 6 4 3 4 3 6 6 7 7 6 1 5 3 5 5 3 4 5 3 2 2
3 3 4 2 5 2 4 4 3 4 4 4 5 5 5 6 5 4 4 3 2 4 6 7 9 10 10 10 9 9 6 5 4 5 6 7 10 10 9 3 4 3 2 3 5 5 4 5 4
5 3 2 2 4 4 3 5 1 5 6 5 5 7 7 7 7 7 7 6 2 6 6 6 8 9 9 9 7 5 6 4 4 4 6 7 8 9 9 8 4 2 3 4 6 4 4 4 5
3 3 6 5 4 2 4 6 5 8 8 6 5 8 9 9 8 7 5 4 5 4 5 6 7 7 8 8 8 7 6 6 5 6 6 5 4 6 9 8 6 4 3 2 3 1 2 2 2
8 7 5 6 6 6 2 2 8 2 10 11 12 9 8 6 6 5 5 5 4 5 5 5 6 7 7 7 7 7 7 7 6 6 5 7 5 4 9 9 10 7 6 3 4 5 5 5 5
4 6 6 4 3 6 3 3 5 4 4 3 5 5 6 7 6 6 5 5 5 4 3 5 7 7 7 6 6 5 6 4 4 4 4 4 3 4 6 7 8 10 10 8 4 1 3 5 6
3 1 3 6 2 2 3 1 4 2 1 3 5 6 9 9 8 8 7 6 6 5 4 4 3 3 5 4 4 5 5 6 4 6 4 3 5 5 7 7 7 7 9 11 9 4 4 4 5
3 5 3 4 3 5 4 3 5 7 10 7 8 11 11 7 9 8 8 7 4 4 3 3 2 2 1 2 2 3 4 4 5 5 6 6 6 6 7 7 7 7 8 6 5 6 7 6 4
4 2 6 5 5 5 2 7 6 14 14 15 14 14 11 10 10 8 6 5 5 4 4 4 3 3 1 2 2 2 3 3 3 4 5 5 5 6 7 7 7 6 7 8 6 5 5 6 7
4 3 4 6 4 2 3 8 4 7 11 12 14 13 11 7 5 4 6 7 6 7 6 7 5 5 5 3 2 3 3 3 3 3 4 5 5 5 6 6 6 7 6 6 6 6 5 4 4
Wind_Direction
356 104 141 55 62 65 211 234 272 246 290 210 136 154 226 49 178 204 120 146 139 149 153 161 161 151 137 130 126 123 116 111 110 111 113 113 114 115 117 119 122 126 131 132 131 131 130 130 131
359 123 47 85 87 67 255 230 213 220 228 51 31 279 21 27 99 102 113 160 143 151 151 157 162 154 139 137 137 136 133 130 128 124 121 121 122 121 122 126 131 136 140 142 139 137 138 136 127
242 56 86 94 111 191 223 219 225 249 232 27 278 305 85 218 88 141 127 134 137 154 148 160 158 152 144 145 147 147 146 144 143 142 141 138 135 134 135 139 146 151 157 159 156 158 152 140 135
113 13 34 84 250 247 210 169 216 218 133 189 224 30 78 242 137 133 131 133 146 157 151 160 157 153 150 151 154 155 154 154 153 154 153 153 154 153 154 160 167 175 180 187 192 201 224 238 250
38 61 62 349 271 267 263 182 181 155 156 202 161 176 65 24 98 124 131 138 149 157 152 157 159 157 156 157 160 161 161 160 162 162 169 173 175 176 179 186 192 201 211 222 230 237 241 241 252
42 91 54 287 263 277 281 209 170 141 166 137 102 77 68 106 117 139 129 133 143 150 148 150 161 156 157 160 161 166 167 168 172 175 178 184 187 192 198 201 205 215 224 233 242 251 261 264 259
114 87 193 259 279 328 324 335 70 125 124 243 172 80 120 148 119 124 123 116 125 142 149 124 137 160 161 163 167 163 173 181 184 194 194 203 209 209 214 218 219 224 229 235 245 252 256 262 273
107 93 28 269 334 343 325 34 310 53 127 353 54 157 180 155 132 102 88 86 121 130 148 159 167 157 158 169 176 175 175 186 191 211 215 218 226 231 230 229 232 231 235 241 244 250 259 268 275
119 57 353 337 7 299 334 68 21 341 83 52 305 108 130 133 114 103 101 78 127 155 165 172 177 177 170 179 190 185 184 190 195 211 234 247 294 286 271 259 249 247 244 245 249 254 257 262 271
87 93 236 190 252 194 81 65 55 82 203 355 73 68 101 118 132 138 147 154 172 187 190 181 179 177 171 199 201 189 226 180 178 190 202 214 220 244 269 281 277 266 262 259 260 262 264 269 266
154 182 212 269 197 242 96 65 85 117 250 16 100 115 114 114 107 116 168 181 185 200 197 194 181 178 183 189 170 179 202 212 206 206 206 213 215 227 242 250 251 273 271 259 272 271 259 261 261
308 236 206 259 215 143 94 127 63 46 72 83 60 101 104 101 83 102 178 184 126 100 60 89 326 321 270 12 216 185 186 192 219 223 214 205 225 243 246 247 251 245 237 260 252 265 274 267 254
184 291 171 326 313 69 128 160 89 81 75 72 66 63 71 85 73 48 31 37 139 166 185 189 178 198 246 248 189 243 214 198 198 209 229 211 233 237 256 260 261 250 255 246 261 259 270 278 285
291 310 324 224 181 68 103 146 98 77 91 69 70 60 59 58 58 62 47 36 43 25 352 326 188 202 188 225 224 216 308 307 267 230 222 196 215 229 242 257 256 269 232 247 249 250 259 271 264
356 3 350 328 345 92 107 40 46 137 96 82 73 69 59 53 44 46 53 49 32 24 337 321 230 197 194 200 192 186 213 217 206 222 238 227 213 217 225 230 247 248 240 247 255 268 276 280 292
33 50 31 286 21 42 101 134 209 165 104 92 82 76 65 48 45 27 23 45 39 28 357 354 1 34 51 157 182 195 214 222 281 294 279 248 233 226 232 245 252 261 259 248 247 252 279 275 251
12 247 240 311 278 190 82 97 111 57 94 89 67 46 44 35 27 21 18 25 19 21 8 9 16 26 8 343 332 326 8 9 324 271 263 251 234 233 239 249 249 253 260 274 293 279 209 260 268
254 355 334 258 312 66 85 115 76 59 88 92 79 48 35 36 13 357 11 16 16 12 12 10 14 12 2 354 27 38 351 42 42 31 21 4 324 247 229 224 218 280 296 293 302 257 268 294 346
149 118 80 329 340 76 98 98 87 76 70 80 78 65 40 25 355 0 5 7 8 17 18 21 22 8 20 10 359 12 54 44 37 32 28 4 322 351 119 154 117 69 37 335 340 290 336 26 354
81 98 344 310 360 92 105 80 55 37 30 79 105 92 70 16 356 351 355 358 354 352 13 28 22 20 28 21 343 334 7 79 58 27 22 1 44 37 65 59 84 68 59 64 55 59 332 84 24
28 111 82 123 343 55 112 101 111 46 63 65 72 88 114 175 195 273 326 331 319 4 20 24 23 16 22 16 25 13 17 29 20 22 31 13 351 338 153 144 196 145 90 135 203 177 152 222 176
107 189 132 90 60 217 49 250 140 153 139 142 138 144 186 194 200 215 236 261 257 43 35 29 28 21 22 16 26 36 47 33 354 2 7 5 4 2 346 318 291 292 299 218 221 228 164 168 169
190 150 76 122 119 101 342 99 212 153 199 191 183 174 186 192 183 185 198 194 152 66 52 48 45 35 23 23 21 27 33 16 5 359 8 4 355 354 353 8 346 49 130 176 189 175 164 179 168
108 78 55 61 100 59 238 138 243 192 188 154 204 201 186 179 176 175 166 106 65 54 65 64 63 42 33 30 21 30 41 27 23 7 13 359 345 351 3 353 337 9 125 171 169 169 196 194 208
67 54 350 353 8 219 245 66 244 178 165 171 191 199 202 192 182 171 138 117 101 83 55 55 51 49 49 53 37 26 27 29 31 22 10 6 359 355 352 354 355 359 351 300 210 211 253 256 243
71 130 150 239 236 270 292 233 277 193 188 173 176 179 188 203 203 200 181 164 138 120 87 64 60 51 39 53 52 47 49 41 31 23 8 360 357 337 342 356 357 358 4 5 336 186 260 264 272
163 69 173 104 5 16 238 355 345 102 215 172 202 196 215 211 202 198 193 189 170 147 109 95 84 87 75 44 44 40 32 34 22 10 4 355 350 347 354 360 6 0 9 10 6 358 349 283 284
87 156 70 8 220 263 296 255 227 203 213 206 216 221 231 216 205 204 199 182 165 128 131 167 169 114 76 51 36 37 17 12 4 7 9 6 357 358 1 0 2 357 354 357 12 351 9 3 357
356 20 51 116 143 183 272 268 213 205 197 203 216 224 226 219 210 201 190 168 155 154 178 203 186 168 226 273 307 10 4 348 351 5 352 359 352 357 1 356 358 1 355 349 348 10 18 15 10
191 129 125 126 235 223 153 274 292 220 202 194 218 224 231 229 205 196 180 168 171 192 199 211 191 197 233 249 272 298 317 326 336 355 341 343 356 343 343 354 355 352 354 354 359 349 348 351 348